ROMMA est une association bénévole à but non lucratif. Votre soutien est indispensable : ADHERER à ROMMA ou FAIRE un DON

Briord - (01, Ain)

Bugey (281 m)   Longitude: 05° 29' 13" E   Latitude: 45° 46' 37" N Station partenaire n°15
 

Détail journalier du     <<     >>

Température Precipitation Humidité Pression Vent Dir Rafale Dir. rafale Ensol.
Heure (°C) (mm) (%) (hPa) (km/h) (km/h) (min)
01:00 7.90.2891005013E0
02:00 7.4091100502O0
03:00 7.20.490100406ENE0
04:00 6.8092100503ENE0
05:00 6.50.293100400---0
06:00 6.4093100402SSE0
07:00 7.608510051---13SE0
08:00 6.9091100502SE0
09:00 7.609010061---15SSE0
10:00 8.60831006010E0
11:00 10.107710071ESE13S0
12:00 10.9075100708S0
13:00 11.807010071---11ONO5
14:00 13.006210071O6NO20
15:00 13.606510074O21NNO60
16:00 11.907410079NO24NO5
17:00 12.306710085NNE19NNE5
18:00 11.407410085NO19NO0
19:00 10.80.27910092N15NO0
20:00 9.9084101003ONO0
21:00 9.1087101103NO0
22:00 8.2088101103ONO0
23:00 6.6090101100---0
minuit 6.0091101100---0

Graphique du 07-04-2019

 

Serveur OMMA